WMT5144 EBCI-LATI

Flight info

Callsign WMT5144
Flight time 2h 6m
Altitude 35000
Route SOPOK Y863 OGLOR DCT EMGOD L607 ULNOK DCT VIBOM DCT NOMBO DCT RIDAR DCT RADIZ DCT GORPA DCT EVTON DCT AKIKA/N0377F180 T8 INLOT
Aircraft A321/M-SDE3FGHIRWY/LB1

Departure

Time 2026-05-07 17:02
Airport Brussels South Charleroi Airport (EBCI)

Arrival

Time 2026-05-07 19:08
Airport Tirana International Airport Mother Teresa (LATI)
Time Latitude Longitude Altitude Speed Heading
2026-05-07 16:17 50.46840 4.46986 585 ft 0 kts 335°
2026-05-07 16:18 50.46839 4.46986 585 ft 0 kts 335°
2026-05-07 16:39 50.46839 4.46987 585 ft 0 kts 335°
2026-05-07 16:45 50.46838 4.46988 585 ft 2 kts 335°
2026-05-07 16:46 50.46814 4.47004 585 ft 4 kts 335°
2026-05-07 16:46 50.46797 4.47019 584 ft 4 kts 291°
2026-05-07 16:46 50.46798 4.47056 585 ft 4 kts 250°
2026-05-07 16:46 50.46804 4.47081 585 ft 3 kts 245°
2026-05-07 16:47 50.46805 4.47085 585 ft 1 kts 245°
2026-05-07 16:51 50.46802 4.47074 585 ft 3 kts 245°
2026-05-07 16:52 50.46785 4.47015 585 ft 9 kts 246°
2026-05-07 16:52 50.46751 4.46894 586 ft 14 kts 246°
2026-05-07 16:52 50.46710 4.46756 588 ft 7 kts 241°
2026-05-07 16:52 50.46686 4.46758 589 ft 4 kts 148°
2026-05-07 16:53 50.46636 4.46796 591 ft 12 kts 172°
2026-05-07 16:53 50.46568 4.46669 591 ft 21 kts 244°
2026-05-07 16:53 50.46501 4.46439 589 ft 25 kts 245°
2026-05-07 16:53 50.46429 4.46195 591 ft 24 kts 245°
2026-05-07 16:54 50.46363 4.45964 596 ft 21 kts 245°
2026-05-07 16:54 50.46301 4.45755 597 ft 21 kts 245°
2026-05-07 16:54 50.46242 4.45551 599 ft 20 kts 245°
2026-05-07 16:54 50.46182 4.45346 599 ft 21 kts 246°
2026-05-07 16:55 50.46119 4.45125 597 ft 24 kts 246°
2026-05-07 16:55 50.46049 4.44886 597 ft 24 kts 245°
2026-05-07 16:55 50.45980 4.44648 598 ft 24 kts 245°
2026-05-07 16:55 50.45943 4.44523 600 ft 0 kts 244°
2026-05-07 16:56 50.45942 4.44521 600 ft 1 kts 244°
2026-05-07 16:56 50.45939 4.44511 600 ft 2 kts 244°
2026-05-07 16:56 50.45937 4.44507 600 ft 0 kts 244°
2026-05-07 16:57 50.45936 4.44504 600 ft 0 kts 244°
2026-05-07 16:58 50.45930 4.44483 600 ft 6 kts 242°
2026-05-07 16:58 50.45886 4.44384 599 ft 16 kts 233°
2026-05-07 16:58 50.45804 4.44218 598 ft 22 kts 232°
2026-05-07 16:58 50.45773 4.44156 596 ft 0 kts 232°
2026-05-07 17:00 50.45769 4.44147 596 ft 3 kts 232°
2026-05-07 17:00 50.45735 4.44080 594 ft 13 kts 232°
2026-05-07 17:00 50.45646 4.43997 594 ft 17 kts 152°
2026-05-07 17:00 50.45659 4.44169 594 ft 18 kts 65°
2026-05-07 17:01 50.45703 4.44319 596 ft 0 kts 65°
2026-05-07 17:01 50.45704 4.44320 596 ft 1 kts 65°
2026-05-07 17:01 50.45782 4.44592 598 ft 62 kts 65°
2026-05-07 17:02 50.46055 4.45532 593 ft 125 kts 65°
2026-05-07 17:02 50.46492 4.47023 623 ft 172 kts 65°
2026-05-07 17:02 50.47024 4.48690 1233 ft 169 kts 57°
2026-05-07 17:02 50.47771 4.50138 1873 ft 172 kts 48°
2026-05-07 17:03 50.48624 4.51593 2127 ft 192 kts 47°
2026-05-07 17:03 50.49569 4.53222 2337 ft 211 kts 49°
2026-05-07 17:03 50.50592 4.55044 2466 ft 236 kts 50°
2026-05-07 17:03 50.51715 4.57090 2857 ft 252 kts 50°
2026-05-07 17:04 50.52872 4.59212 3534 ft 258 kts 51°
2026-05-07 17:04 50.54014 4.61425 3916 ft 262 kts 52°
2026-05-07 17:04 50.55135 4.63683 3997 ft 262 kts 53°
2026-05-07 17:04 50.56239 4.65948 4004 ft 261 kts 53°
2026-05-07 17:05 50.57340 4.68218 4009 ft 261 kts 53°
2026-05-07 17:05 50.58443 4.70482 4007 ft 261 kts 53°
2026-05-07 17:05 50.59547 4.72744 4007 ft 261 kts 52°
2026-05-07 17:05 50.60656 4.75008 4014 ft 261 kts 52°
2026-05-07 17:06 50.61774 4.77282 4599 ft 263 kts 52°
2026-05-07 17:06 50.62902 4.79576 5337 ft 266 kts 53°
2026-05-07 17:06 50.64041 4.81897 6038 ft 270 kts 53°
2026-05-07 17:06 50.65137 4.84284 6676 ft 274 kts 61°
2026-05-07 17:07 50.65847 4.87124 7321 ft 277 kts 78°
2026-05-07 17:07 50.65999 4.90123 7950 ft 280 kts 95°
2026-05-07 17:07 50.65602 4.93131 8599 ft 283 kts 108°
2026-05-07 17:07 50.65000 4.96151 9276 ft 286 kts 108°
2026-05-07 17:08 50.64412 4.99122 9915 ft 290 kts 108°
2026-05-07 17:08 50.63804 5.02199 10325 ft 303 kts 108°
2026-05-07 17:08 50.63159 5.05476 10459 ft 323 kts 108°
2026-05-07 17:08 50.62474 5.08961 10587 ft 343 kts 108°
2026-05-07 17:09 50.61745 5.12662 10721 ft 361 kts 108°
2026-05-07 17:09 50.60991 5.16484 11131 ft 369 kts 108°
2026-05-07 17:09 50.60220 5.20368 11691 ft 373 kts 108°
2026-05-07 17:09 50.59440 5.24292 12270 ft 377 kts 108°
2026-05-07 17:10 50.58648 5.28251 12850 ft 380 kts 108°
2026-05-07 17:10 50.57833 5.32227 13427 ft 384 kts 109°
2026-05-07 17:10 50.57010 5.36182 13978 ft 387 kts 109°
2026-05-07 17:10 50.56165 5.40231 14500 ft 391 kts 109°
2026-05-07 17:11 50.55313 5.44311 15023 ft 394 kts 109°
2026-05-07 17:11 50.54458 5.48413 15541 ft 397 kts 109°
2026-05-07 17:11 50.53589 5.52567 16065 ft 401 kts 109°
2026-05-07 17:11 50.52713 5.56734 16597 ft 404 kts 109°
2026-05-07 17:12 50.51808 5.60943 17106 ft 407 kts 112°
2026-05-07 17:12 50.50468 5.64867 17597 ft 409 kts 127°
2026-05-07 17:12 50.48525 5.68107 18104 ft 409 kts 143°
2026-05-07 17:12 50.46062 5.70313 18563 ft 409 kts 161°
2026-05-07 17:13 50.43348 5.71419 18981 ft 409 kts 169°
2026-05-07 17:13 50.40552 5.72351 19420 ft 412 kts 170°
2026-05-07 17:13 50.37736 5.73271 19848 ft 414 kts 170°
2026-05-07 17:13 50.34906 5.74191 20285 ft 417 kts 170°
2026-05-07 17:14 50.32072 5.75245 20704 ft 421 kts 163°
2026-05-07 17:14 50.29392 5.77122 21102 ft 426 kts 150°
2026-05-07 17:14 50.27015 5.79914 21505 ft 431 kts 137°
2026-05-07 17:14 50.25062 5.83492 21901 ft 435 kts 124°
2026-05-07 17:15 50.23645 5.87680 22281 ft 439 kts 112°
2026-05-07 17:15 50.22771 5.92267 22654 ft 442 kts 105°
2026-05-07 17:15 50.21994 5.96932 23043 ft 445 kts 105°
2026-05-07 17:15 50.21208 6.01609 23411 ft 447 kts 105°
2026-05-07 17:16 50.20406 6.06314 23754 ft 450 kts 106°
2026-05-07 17:16 50.19592 6.11040 24065 ft 452 kts 106°
2026-05-07 17:16 50.18829 6.15807 24386 ft 455 kts 101°
2026-05-07 17:16 50.18473 6.20721 24703 ft 458 kts 92°
2026-05-07 17:17 50.18600 6.25687 25010 ft 460 kts 84°
2026-05-07 17:17 50.18922 6.30601 25314 ft 462 kts 84°
2026-05-07 17:17 50.19246 6.35662 25629 ft 464 kts 84°
2026-05-07 17:17 50.19553 6.40611 25926 ft 466 kts 85°
2026-05-07 17:18 50.19860 6.45647 26212 ft 467 kts 85°
2026-05-07 17:18 50.20166 6.50706 26506 ft 469 kts 85°
2026-05-07 17:18 50.20470 6.55807 26822 ft 471 kts 85°
2026-05-07 17:18 50.20771 6.60922 27125 ft 473 kts 85°
2026-05-07 17:19 50.20943 6.66055 27423 ft 475 kts 91°
2026-05-07 17:19 50.20857 6.71209 27728 ft 476 kts 92°
2026-05-07 17:19 50.20767 6.76378 28148 ft 475 kts 91°
2026-05-07 17:19 50.20677 6.81537 28583 ft 474 kts 91°
2026-05-07 17:20 50.20587 6.86609 29000 ft 473 kts 91°
2026-05-07 17:20 50.20492 6.91731 29415 ft 472 kts 91°
2026-05-07 17:20 50.20395 6.96842 29835 ft 471 kts 91°
2026-05-07 17:20 50.20295 7.01941 30230 ft 470 kts 91°
2026-05-07 17:21 50.20191 7.07030 30573 ft 469 kts 91°
2026-05-07 17:21 50.20084 7.12122 30925 ft 468 kts 91°
2026-05-07 17:21 50.19977 7.17194 31262 ft 467 kts 91°
2026-05-07 17:21 50.19870 7.22257 31605 ft 466 kts 91°
2026-05-07 17:22 50.19762 7.27308 31931 ft 465 kts 91°
2026-05-07 17:22 50.19475 7.32350 32244 ft 465 kts 100°
2026-05-07 17:22 50.18729 7.37235 32535 ft 464 kts 108°
2026-05-07 17:22 50.17722 7.41965 32775 ft 465 kts 108°
2026-05-07 17:23 50.16704 7.46752 33041 ft 465 kts 108°
2026-05-07 17:23 50.15691 7.51544 33327 ft 465 kts 108°
2026-05-07 17:23 50.14679 7.56337 33610 ft 465 kts 108°
2026-05-07 17:23 50.13665 7.61118 33899 ft 464 kts 108°
2026-05-07 17:24 50.12648 7.65898 34163 ft 464 kts 108°
2026-05-07 17:24 50.11631 7.70674 34365 ft 464 kts 108°
2026-05-07 17:24 50.10613 7.75441 34576 ft 464 kts 108°
2026-05-07 17:24 50.09586 7.80218 34787 ft 464 kts 109°
2026-05-07 17:25 50.08556 7.84984 34961 ft 465 kts 109°
2026-05-07 17:25 50.07406 7.89693 35047 ft 466 kts 116°
2026-05-07 17:25 50.04024 7.98285 35056 ft 466 kts 125°
2026-05-07 17:26 50.00375 8.06622 35055 ft 466 kts 125°
2026-05-07 17:26 49.96731 8.14965 35054 ft 466 kts 125°
2026-05-07 17:27 49.93088 8.23293 35058 ft 466 kts 125°
2026-05-07 17:27 49.89439 8.31603 35048 ft 466 kts 125°
2026-05-07 17:28 49.85766 8.39914 35047 ft 467 kts 125°
2026-05-07 17:28 49.81964 8.47995 35049 ft 467 kts 129°
2026-05-07 17:29 49.77874 8.55802 35055 ft 467 kts 130°
2026-05-07 17:29 49.73728 8.63557 35060 ft 467 kts 130°
2026-05-07 17:30 49.69651 8.71368 35063 ft 467 kts 129°
2026-05-07 17:30 49.65600 8.79230 35066 ft 468 kts 129°
2026-05-07 17:31 49.61534 8.87080 35059 ft 468 kts 130°
2026-05-07 17:31 49.57441 8.94906 35063 ft 469 kts 130°
2026-05-07 17:32 49.53335 9.02723 35067 ft 469 kts 130°
2026-05-07 17:32 49.49926 9.09209 35066 ft 469 kts 130°
2026-05-07 17:33 49.45319 9.18551 35068 ft 470 kts 124°
2026-05-07 17:33 49.41747 9.26980 35069 ft 471 kts 124°
2026-05-07 17:34 49.38187 9.35345 35071 ft 471 kts 124°
2026-05-07 17:34 49.34589 9.43740 35059 ft 471 kts 124°
2026-05-07 17:35 49.31594 9.50709 35060 ft 471 kts 124°
2026-05-07 17:35 49.27980 9.59104 35064 ft 472 kts 124°
2026-05-07 17:36 49.24364 9.67487 35072 ft 472 kts 124°
2026-05-07 17:36 49.20739 9.75872 35075 ft 472 kts 125°
2026-05-07 17:37 49.17104 9.84234 35077 ft 472 kts 125°
2026-05-07 17:37 49.13459 9.92583 35077 ft 472 kts 125°
2026-05-07 17:38 49.09811 10.00922 35075 ft 472 kts 125°
2026-05-07 17:38 49.06049 10.09120 35055 ft 470 kts 133°
2026-05-07 17:39 49.01485 10.16233 35065 ft 469 kts 137°
2026-05-07 17:39 48.96885 10.23204 35063 ft 469 kts 137°
2026-05-07 17:40 48.92255 10.30220 35084 ft 470 kts 137°
2026-05-07 17:40 48.87619 10.37224 35087 ft 470 kts 137°
2026-05-07 17:41 48.82969 10.44226 35088 ft 470 kts 137°
2026-05-07 17:41 48.78320 10.51218 35088 ft 471 kts 137°
2026-05-07 17:42 48.73662 10.58204 35078 ft 471 kts 137°
2026-05-07 17:42 48.68999 10.65169 35082 ft 471 kts 137°
2026-05-07 17:43 48.64317 10.72144 35077 ft 472 kts 138°
2026-05-07 17:43 48.59636 10.79100 35079 ft 472 kts 137°
2026-05-07 17:44 48.55392 10.86691 35057 ft 474 kts 131°
2026-05-07 17:44 48.51265 10.94363 35063 ft 474 kts 131°
2026-05-07 17:45 48.47093 11.02091 35070 ft 474 kts 131°
2026-05-07 17:45 48.42919 11.09795 35071 ft 474 kts 131°
2026-05-07 17:46 48.38738 11.17488 35067 ft 475 kts 131°
2026-05-07 17:46 48.34554 11.25174 35054 ft 475 kts 132°
2026-05-07 17:47 48.30363 11.32847 35073 ft 475 kts 132°
2026-05-07 17:47 48.26165 11.40511 35068 ft 475 kts 132°
2026-05-07 17:48 48.21981 11.48118 35068 ft 475 kts 132°
2026-05-07 17:48 48.17771 11.55761 35068 ft 475 kts 132°
2026-05-07 17:49 48.13554 11.63394 35060 ft 475 kts 132°
2026-05-07 17:49 48.09328 11.71009 35064 ft 475 kts 132°
2026-05-07 17:50 48.05106 11.78604 35060 ft 475 kts 132°
2026-05-07 17:50 48.00873 11.86199 35046 ft 475 kts 133°
2026-05-07 17:51 47.96656 11.93753 35042 ft 476 kts 133°
2026-05-07 17:51 47.92412 12.01335 35040 ft 476 kts 133°
2026-05-07 17:52 47.88154 12.08902 35040 ft 476 kts 133°
2026-05-07 17:52 47.83893 12.16451 35052 ft 477 kts 133°
2026-05-07 17:53 47.79626 12.24004 35057 ft 477 kts 133°
2026-05-07 17:53 47.75350 12.31549 35030 ft 477 kts 133°
2026-05-07 17:54 47.71085 12.39046 35040 ft 478 kts 133°
2026-05-07 17:54 47.66787 12.46584 35043 ft 478 kts 133°
2026-05-07 17:55 47.62477 12.54110 35045 ft 479 kts 134°
2026-05-07 17:55 47.58030 12.61451 35051 ft 478 kts 136°
2026-05-07 17:56 47.53471 12.68597 35056 ft 478 kts 137°
2026-05-07 17:56 47.48896 12.75747 35038 ft 479 kts 137°
2026-05-07 17:57 47.45114 12.81733 35040 ft 480 kts 136°
2026-05-07 17:57 47.39832 12.90138 35055 ft 480 kts 136°
2026-05-07 17:58 47.35273 12.97363 35055 ft 480 kts 137°
2026-05-07 17:58 47.30708 13.04541 35062 ft 479 kts 137°
2026-05-07 17:59 47.26134 13.11691 35064 ft 479 kts 137°
2026-05-07 17:59 47.21560 13.18829 35043 ft 479 kts 137°
2026-05-07 18:00 47.16990 13.25978 35054 ft 480 kts 137°
2026-05-07 18:00 47.12421 13.33119 35052 ft 480 kts 137°
2026-05-07 18:01 47.07844 13.40231 35048 ft 479 kts 137°
2026-05-07 18:01 47.03260 13.47323 35056 ft 479 kts 137°
2026-05-07 18:02 46.96397 13.57914 35031 ft 480 kts 138°
2026-05-07 18:03 46.91794 13.64981 35021 ft 480 kts 138°
2026-05-07 18:03 46.87185 13.72057 35018 ft 480 kts 138°
2026-05-07 18:04 46.82571 13.79129 35027 ft 481 kts 138°
2026-05-07 18:04 46.77947 13.86188 35024 ft 481 kts 139°
2026-05-07 18:05 46.73322 13.93233 35004 ft 481 kts 139°
2026-05-07 18:05 46.68713 14.00226 35001 ft 481 kts 139°
2026-05-07 18:06 46.64079 14.07243 35022 ft 481 kts 139°
2026-05-07 18:06 46.59428 14.14270 35035 ft 482 kts 139°
2026-05-07 18:07 46.54776 14.21275 35039 ft 481 kts 139°
2026-05-07 18:07 46.50120 14.28264 35010 ft 480 kts 140°
2026-05-07 18:08 46.45463 14.35243 35008 ft 482 kts 140°
2026-05-07 18:08 46.40794 14.42224 35012 ft 482 kts 140°
2026-05-07 18:09 46.36140 14.49156 35006 ft 483 kts 140°
2026-05-07 18:09 46.31451 14.56119 35009 ft 483 kts 141°
2026-05-07 18:10 46.26769 14.63066 35009 ft 482 kts 140°
2026-05-07 18:10 46.22089 14.69985 34990 ft 481 kts 141°
2026-05-07 18:11 46.17413 14.76882 35008 ft 481 kts 141°
2026-05-07 18:11 46.12735 14.83766 35007 ft 480 kts 141°
2026-05-07 18:12 46.08057 14.90629 35000 ft 480 kts 141°
2026-05-07 18:12 46.03380 14.97480 35009 ft 479 kts 141°
2026-05-07 18:13 45.98711 15.04311 35004 ft 479 kts 141°
2026-05-07 18:13 45.94062 15.11077 34995 ft 478 kts 141°
2026-05-07 18:14 45.89386 15.17849 34974 ft 477 kts 141°
2026-05-07 18:14 45.84720 15.24609 34993 ft 476 kts 141°
2026-05-07 18:15 45.80051 15.31374 34993 ft 475 kts 141°
2026-05-07 18:15 45.75405 15.38117 34995 ft 476 kts 140°
2026-05-07 18:16 45.70925 15.45030 34995 ft 477 kts 138°
2026-05-07 18:16 45.66475 15.52065 35014 ft 477 kts 138°
2026-05-07 18:17 45.61995 15.59066 35013 ft 477 kts 139°
2026-05-07 18:17 45.57482 15.65996 35013 ft 476 kts 139°
2026-05-07 18:18 45.52956 15.72910 35014 ft 476 kts 139°
2026-05-07 18:18 45.48440 15.79821 35019 ft 475 kts 139°
2026-05-07 18:19 45.43963 15.86666 35012 ft 475 kts 139°
2026-05-07 18:19 45.39459 15.93545 35025 ft 474 kts 139°
2026-05-07 18:20 45.34950 16.00395 35027 ft 474 kts 139°
2026-05-07 18:20 45.30437 16.07219 35011 ft 473 kts 139°
2026-05-07 18:21 45.25927 16.14028 35028 ft 473 kts 139°
2026-05-07 18:21 45.21419 16.20833 35033 ft 473 kts 139°
2026-05-07 18:22 45.16905 16.27621 35037 ft 473 kts 139°
2026-05-07 18:22 45.12389 16.34407 35013 ft 473 kts 139°
2026-05-07 18:23 45.07868 16.41186 35026 ft 473 kts 139°
2026-05-07 18:23 45.03342 16.47933 35034 ft 472 kts 139°
2026-05-07 18:24 44.98847 16.54626 35043 ft 472 kts 139°
2026-05-07 18:24 44.94325 16.61361 35023 ft 472 kts 140°
2026-05-07 18:25 44.89804 16.68074 35014 ft 472 kts 140°
2026-05-07 18:25 44.86037 16.73642 35020 ft 472 kts 140°
2026-05-07 18:26 44.81485 16.80347 35037 ft 472 kts 140°
2026-05-07 18:26 44.76942 16.87025 35039 ft 472 kts 140°
2026-05-07 18:27 44.72390 16.93711 35024 ft 473 kts 140°
2026-05-07 18:27 44.67756 17.00190 35013 ft 471 kts 143°
2026-05-07 18:28 44.62882 17.06329 35028 ft 470 kts 145°
2026-05-07 18:28 44.57952 17.12403 35035 ft 472 kts 144°
2026-05-07 18:29 44.53060 17.18569 35033 ft 473 kts 144°
2026-05-07 18:29 44.48190 17.24775 35055 ft 474 kts 144°
2026-05-07 18:30 44.43302 17.30977 35052 ft 474 kts 144°
2026-05-07 18:30 44.38432 17.37122 35057 ft 474 kts 144°
2026-05-07 18:31 44.33525 17.43288 35067 ft 475 kts 144°
2026-05-07 18:31 44.28604 17.49454 35063 ft 475 kts 144°
2026-05-07 18:32 44.23683 17.55623 35079 ft 476 kts 144°
2026-05-07 18:32 44.18784 17.61751 35064 ft 476 kts 144°
2026-05-07 18:33 44.13845 17.67905 35074 ft 477 kts 144°
2026-05-07 18:33 44.08902 17.74050 35062 ft 477 kts 144°
2026-05-07 18:34 44.03944 17.80193 35088 ft 477 kts 144°
2026-05-07 18:34 43.98991 17.86325 35082 ft 477 kts 144°
2026-05-07 18:35 43.94035 17.92449 35074 ft 477 kts 144°
2026-05-07 18:35 43.89058 17.98579 35051 ft 478 kts 144°
2026-05-07 18:36 43.84115 18.04642 35081 ft 478 kts 144°
2026-05-07 18:36 43.79133 18.10755 35090 ft 479 kts 144°
2026-05-07 18:37 43.74139 18.16871 35091 ft 479 kts 144°
2026-05-07 18:37 43.69146 18.22966 35085 ft 479 kts 144°
2026-05-07 18:38 43.64137 18.29060 35083 ft 480 kts 144°
2026-05-07 18:38 43.59143 18.35121 35091 ft 481 kts 144°
2026-05-07 18:39 43.54115 18.41218 35097 ft 481 kts 144°
2026-05-07 18:39 43.49088 18.47298 35075 ft 481 kts 144°
2026-05-07 18:40 43.44053 18.53368 35058 ft 483 kts 145°
2026-05-07 18:40 43.38989 18.59464 35058 ft 484 kts 145°
2026-05-07 18:41 43.33907 18.65565 35069 ft 485 kts 145°
2026-05-07 18:41 43.28821 18.71667 35070 ft 486 kts 145°
2026-05-07 18:42 43.23744 18.77735 35081 ft 487 kts 145°
2026-05-07 18:42 43.18631 18.83820 35093 ft 486 kts 145°
2026-05-07 18:43 43.13525 18.89892 35097 ft 486 kts 145°
2026-05-07 18:43 43.08418 18.95961 35111 ft 486 kts 145°
2026-05-07 18:44 43.03310 19.02013 35112 ft 486 kts 146°
2026-05-07 18:44 42.98192 19.08059 35087 ft 487 kts 146°
2026-05-07 18:45 42.93074 19.14089 35076 ft 489 kts 146°
2026-05-07 18:45 42.87910 19.20171 35090 ft 491 kts 146°
2026-05-07 18:46 42.82732 19.26251 35096 ft 491 kts 146°
2026-05-07 18:46 42.77532 19.32327 35107 ft 493 kts 146°
2026-05-07 18:47 42.72334 19.38398 35076 ft 493 kts 146°
2026-05-07 18:47 42.67115 19.44498 34747 ft 495 kts 146°
2026-05-07 18:47 42.64497 19.47548 34118 ft 496 kts 146°
2026-05-07 18:48 42.61872 19.50594 33437 ft 497 kts 146°
2026-05-07 18:48 42.59159 19.53450 32813 ft 489 kts 153°
2026-05-07 18:48 42.56221 19.55663 32193 ft 478 kts 163°
2026-05-07 18:48 42.53125 19.57183 31537 ft 469 kts 172°
2026-05-07 18:49 42.49923 19.58034 30444 ft 469 kts 180°
2026-05-07 18:49 42.46708 19.58178 29363 ft 460 kts 188°
2026-05-07 18:49 42.43600 19.57693 28593 ft 446 kts 195°
2026-05-07 18:49 42.40555 19.56870 27798 ft 446 kts 196°
2026-05-07 18:50 42.37532 19.56052 27300 ft 439 kts 195°
2026-05-07 18:50 42.34555 19.55245 26731 ft 434 kts 195°
2026-05-07 18:50 42.31609 19.54443 26168 ft 429 kts 195°
2026-05-07 18:50 42.28699 19.53649 25630 ft 424 kts 195°
2026-05-07 18:51 42.25818 19.52862 25083 ft 421 kts 195°
2026-05-07 18:51 42.22957 19.52081 24534 ft 417 kts 195°
2026-05-07 18:51 42.20120 19.51307 24010 ft 414 kts 195°
2026-05-07 18:51 42.17299 19.50539 23447 ft 411 kts 195°
2026-05-07 18:52 42.14512 19.49781 22896 ft 407 kts 194°
2026-05-07 18:52 42.11713 19.49022 21598 ft 420 kts 194°
2026-05-07 18:52 42.08855 19.48248 20477 ft 414 kts 194°
2026-05-07 18:52 42.06065 19.47502 19413 ft 403 kts 194°
2026-05-07 18:53 42.03330 19.46771 18896 ft 398 kts 194°
2026-05-07 18:53 42.00643 19.46055 18657 ft 399 kts 192°
2026-05-07 18:53 41.97880 19.45711 18447 ft 400 kts 183°
2026-05-07 18:53 41.95100 19.45986 18179 ft 402 kts 173°
2026-05-07 18:54 41.92334 19.46647 17895 ft 401 kts 173°
2026-05-07 18:54 41.89598 19.47305 17634 ft 399 kts 173°
2026-05-07 18:54 41.86900 19.47951 17377 ft 397 kts 173°
2026-05-07 18:54 41.84185 19.48599 17115 ft 395 kts 173°
2026-05-07 18:55 41.81495 19.49238 16799 ft 389 kts 173°
2026-05-07 18:55 41.78843 19.49866 16313 ft 384 kts 173°
2026-05-07 18:55 41.76225 19.50485 15811 ft 380 kts 173°
2026-05-07 18:55 41.73633 19.51100 15327 ft 376 kts 173°
2026-05-07 18:56 41.71073 19.51706 14836 ft 372 kts 173°
2026-05-07 18:56 41.68534 19.52307 14331 ft 369 kts 173°
2026-05-07 18:56 41.66023 19.52900 13828 ft 365 kts 172°
2026-05-07 18:56 41.63537 19.53483 13297 ft 361 kts 173°
2026-05-07 18:57 41.61065 19.53948 12792 ft 356 kts 175°
2026-05-07 18:57 41.58618 19.54298 12285 ft 351 kts 177°
2026-05-07 18:57 41.56199 19.54591 11792 ft 346 kts 178°
2026-05-07 18:57 41.53812 19.54865 11308 ft 342 kts 178°
2026-05-07 18:58 41.51460 19.55145 10955 ft 335 kts 177°
2026-05-07 18:58 41.49186 19.55436 10831 ft 321 kts 176°
2026-05-07 18:58 41.47007 19.55726 10709 ft 308 kts 176°
2026-05-07 18:58 41.44945 19.56007 10589 ft 296 kts 176°
2026-05-07 18:59 41.42931 19.56283 10444 ft 286 kts 176°
2026-05-07 18:59 41.40975 19.56551 10253 ft 278 kts 176°
2026-05-07 18:59 41.39051 19.56812 10167 ft 279 kts 176°
2026-05-07 18:59 41.37122 19.57070 10046 ft 278 kts 176°
2026-05-07 19:00 41.35190 19.57326 9735 ft 280 kts 176°
2026-05-07 19:00 41.33250 19.57585 9360 ft 278 kts 176°
2026-05-07 19:00 41.31333 19.57844 9004 ft 276 kts 175°
2026-05-07 19:00 41.29432 19.58102 8660 ft 273 kts 175°
2026-05-07 19:01 41.27549 19.58357 8315 ft 270 kts 175°
2026-05-07 19:01 41.25688 19.58611 7972 ft 268 kts 175°
2026-05-07 19:01 41.23840 19.58863 7634 ft 266 kts 175°
2026-05-07 19:01 41.22004 19.59109 7301 ft 264 kts 175°
2026-05-07 19:02 41.20208 19.59519 6962 ft 263 kts 160°
2026-05-07 19:02 41.18685 19.60834 6639 ft 265 kts 135°
2026-05-07 19:02 41.17761 19.62944 6253 ft 270 kts 108°
2026-05-07 19:02 41.17638 19.65448 5859 ft 276 kts 87°
2026-05-07 19:03 41.17833 19.67992 5458 ft 278 kts 87°
2026-05-07 19:03 41.18033 19.70505 5047 ft 267 kts 85°
2026-05-07 19:03 41.18580 19.72775 4680 ft 255 kts 56°
2026-05-07 19:03 41.19862 19.74278 4313 ft 244 kts 23°
2026-05-07 19:04 41.21474 19.74613 4511 ft 241 kts 358°
2026-05-07 19:04 41.23124 19.74461 4249 ft 237 kts 356°
2026-05-07 19:04 41.24799 19.74264 3608 ft 244 kts 356°
2026-05-07 19:04 41.26476 19.74049 3066 ft 238 kts 355°
2026-05-07 19:05 41.28078 19.73835 2736 ft 225 kts 355°
2026-05-07 19:05 41.29604 19.73629 2455 ft 217 kts 355°
2026-05-07 19:05 41.31027 19.73439 2207 ft 192 kts 355°
2026-05-07 19:05 41.32275 19.73273 1987 ft 171 kts 354°
2026-05-07 19:06 41.33388 19.73124 1723 ft 153 kts 354°
2026-05-07 19:06 41.35438 19.72856 1186 ft 145 kts 355°
2026-05-07 19:06 41.36441 19.72728 943 ft 145 kts 355°
2026-05-07 19:07 41.37450 19.72606 762 ft 146 kts 355°
2026-05-07 19:07 41.38463 19.72453 541 ft 146 kts 353°
2026-05-07 19:07 41.39475 19.72319 324 ft 147 kts 354°
2026-05-07 19:07 41.40490 19.72184 144 ft 146 kts 354°
2026-05-07 19:08 41.41383 19.72075 124 ft 111 kts 353°
2026-05-07 19:08 41.41978 19.71992 122 ft 64 kts 355°
2026-05-07 19:08 41.42241 19.71929 123 ft 28 kts 320°
2026-05-07 19:08 41.42280 19.71805 130 ft 13 kts 264°
2026-05-07 19:09 41.42278 19.71790 128 ft 0 kts 263°
2026-05-07 19:10 41.42275 19.71739 127 ft 11 kts 264°
2026-05-07 19:10 41.42266 19.71615 131 ft 10 kts 264°
2026-05-07 19:10 41.42238 19.71545 132 ft 9 kts 201°
2026-05-07 19:10 41.42172 19.71545 132 ft 10 kts 176°
2026-05-07 19:11 41.42098 19.71555 132 ft 11 kts 173°
2026-05-07 19:11 41.42026 19.71565 132 ft 5 kts 176°
2026-05-07 19:11 41.41997 19.71537 132 ft 6 kts 242°
2026-05-07 19:11 41.41993 19.71518 132 ft 2 kts 255°
2026-05-07 19:12 41.41991 19.71502 132 ft 0 kts 262°